TimeEST,TemperatureF,Dew PointF,Humidity,Sea Level PressureIn,VisibilityMPH,Wind Direction,Wind SpeedMPH,Gust SpeedMPH,PrecipitationIn,Events,Conditions,WindDirDegrees,DateUTC
12:33 AM,48.2,46.4,93,29.61,9.0,ESE,24.2,31.1,0.03,Rain,Light Rain,110,2012-12-21 05:33:00
12:49 AM,48.2,46.4,93,29.59,5.0,ESE,16.1,29.9,0.07,Rain,Rain,120,2012-12-21 05:49:00
12:54 AM,48.9,46.9,93,29.60,6.0,SE,19.6,28.8,0.08,Rain,Rain,130,2012-12-21 05:54:00
1:54 AM,51.1,48.9,92,29.53,5.0,SE,17.3,28.8,0.21,Rain,Rain,130,2012-12-21 06:54:00
2:54 AM,53.1,51.1,93,29.44,7.0,SE,23.0,35.7,0.11,Rain,Rain,130,2012-12-21 07:54:00
3:54 AM,55.0,53.1,93,29.31,4.0,SE,24.2,38.0,0.13,Rain,Rain,140,2012-12-21 08:54:00
4:54 AM,55.9,55.0,97,29.24,4.0,SSE,18.4,34.5,0.11,Rain,Rain,150,2012-12-21 09:54:00
5:10 AM,55.4,55.4,100,29.22,2.5,SE,21.9,39.1,0.07,Rain,Rain,140,2012-12-21 10:10:00
5:32 AM,57.2,55.4,94,29.21,3.0,SSE,17.3,32.2,0.16,Rain,Rain,150,2012-12-21 10:32:00
5:35 AM,57.2,55.4,94,29.20,2.5,SSE,13.8,25.3,0.18,Rain,Heavy Rain,160,2012-12-21 10:35:00
5:54 AM,57.0,55.9,96,29.18,3.0,SSE,17.3,35.7,0.27,Rain,Rain,160,2012-12-21 10:54:00
6:15 AM,57.2,55.4,94,29.16,2.5,SSE,17.3,32.2,0.06,Rain,Rain,160,2012-12-21 11:15:00
6:24 AM,57.2,55.4,94,29.16,2.5,SSE,12.7,28.8,0.09,Rain,Rain,160,2012-12-21 11:24:00
6:28 AM,57.2,55.4,94,29.16,3.0,South,12.7,21.9,0.09,Rain,Rain,170,2012-12-21 11:28:00
6:40 AM,57.2,55.4,94,29.18,2.0,SW,13.8,21.9,0.16,Rain,Heavy Rain,230,2012-12-21 11:40:00
6:42 AM,55.4,55.4,100,29.19,1.5,WSW,18.4,26.5,0.18,Rain,Heavy Rain,240,2012-12-21 11:42:00
6:52 AM,53.6,53.6,100,29.18,2.0,SW,11.5,25.3,0.28,Rain,Rain,230,2012-12-21 11:52:00
6:54 AM,54.0,53.1,97,29.18,2.5,WSW,11.5,19.6,0.29,Rain,Rain,250,2012-12-21 11:54:00
7:00 AM,51.8,51.8,100,29.20,5.0,West,16.1,29.9,0.00,Rain,Light Rain,280,2012-12-21 12:00:00
7:08 AM,51.8,48.2,88,29.19,9.0,WNW,15.0,25.3,0.01,Rain,Light Rain,290,2012-12-21 12:08:00
7:45 AM,48.2,44.6,87,29.20,10.0,West,12.7,20.7,0.01,Rain,Light Rain,280,2012-12-21 12:45:00
7:54 AM,46.0,44.1,93,29.23,10.0,West,17.3,29.9,0.01,Rain,Light Rain,270,2012-12-21 12:54:00
8:13 AM,44.6,41.0,87,29.23,10.0,WNW,18.4,26.5,0.00,,Overcast,290,2012-12-21 13:13:00
8:54 AM,44.1,39.9,85,29.25,10.0,West,17.3,24.2,0.00,,Overcast,280,2012-12-21 13:54:00
9:12 AM,44.6,37.4,76,29.27,10.0,West,13.8,27.6,N/A,,Overcast,280,2012-12-21 14:12:00
9:41 AM,44.6,37.4,76,29.29,10.0,WNW,13.8,23.0,0.00,Rain,Light Rain,290,2012-12-21 14:41:00
9:54 AM,43.0,36.0,76,29.30,10.0,West,19.6,31.1,0.00,Rain,Light Rain,270,2012-12-21 14:54:00
10:10 AM,42.8,33.8,70,29.30,10.0,West,17.3,28.8,0.00,Rain,Light Rain,280,2012-12-21 15:10:00
10:54 AM,42.1,33.1,70,29.30,10.0,West,18.4,29.9,0.00,Rain,Light Rain,270,2012-12-21 15:54:00
11:54 AM,42.1,30.0,62,29.29,10.0,West,23.0,29.9,0.00,,Overcast,260,2012-12-21 16:54:00
12:54 PM,41.0,28.0,60,29.30,10.0,West,16.1,25.3,N/A,,Overcast,260,2012-12-21 17:54:00
1:54 PM,39.9,27.0,60,29.31,10.0,West,12.7,-,0.00,,Overcast,260,2012-12-21 18:54:00
2:54 PM,39.9,26.1,58,29.33,10.0,West,16.1,29.9,N/A,,Overcast,260,2012-12-21 19:54:00
3:54 PM,39.9,26.1,58,29.34,10.0,West,18.4,24.2,N/A,,Overcast,270,2012-12-21 20:54:00
4:54 PM,39.0,25.0,57,29.36,10.0,West,24.2,28.8,N/A,,Overcast,270,2012-12-21 21:54:00
5:54 PM,39.0,25.0,57,29.38,10.0,WSW,13.8,25.3,N/A,,Overcast,250,2012-12-21 22:54:00
6:54 PM,37.9,25.0,60,29.39,10.0,WSW,16.1,-,N/A,,Overcast,250,2012-12-21 23:54:00
7:54 PM,37.0,25.0,62,29.40,10.0,WSW,16.1,25.3,N/A,,Overcast,250,2012-12-22 00:54:00
8:54 PM,37.0,26.1,65,29.41,10.0,West,18.4,28.8,N/A,,Overcast,260,2012-12-22 01:54:00
9:54 PM,36.0,27.0,70,29.42,10.0,West,15.0,23.0,N/A,,Overcast,260,2012-12-22 02:54:00
10:54 PM,37.0,27.0,67,29.42,10.0,WSW,15.0,-,N/A,,Overcast,250,2012-12-22 03:54:00
11:54 PM,36.0,28.0,73,29.42,10.0,West,16.1,27.6,N/A,,Overcast,270,2012-12-22 04:54:00